Easton, MD

11:44 PM EST on November 19, 2019 (GMT -0500)
Easton / Newnam

Weather History for KESN - September, 2019

Change the Weather History Date:

Monday, September 16, 2019

  Actual Average Record
Temperature  
Mean Temperature 76 °F -  
Max Temperature 89 °F 79 °F 92 °F (1970)
Min Temperature 62 °F 58 °F 46 °F (1964)
Cooling Degree Days 10    
Growing Degree Days 26 (Base 50)    
Moisture  
Dew Point 63 °F    
Average Humidity 77    
Maximum Humidity 100    
Minimum Humidity 24    
Precipitation  
Precipitation 0.00 in - - ()
Sea Level Pressure  
Sea Level Pressure 30.08 in    
Wind  
Wind Speed 0 mph (SE)    
Max Wind Speed 6 mph    
Max Gust Speed -    
Visibility 7 miles    
Events Fog    
Averages and records for this station are not official NWS values.
T = Trace of Precipitation, MM = Missing Value Source: NWS Daily Summary

Daily Weather History Graph

Daily Weather History Graph

Search for Another Location

Airport or City:

Astronomy

Sep. 16, 2019 Rise Set
Actual Time 6:46 AM EDT 7:11 PM EDT
Civil Twilight 6:19 AM EDT 7:37 PM EDT
Nautical Twilight 5:48 AM EDT 8:09 PM EDT
Astronomical Twilight 5:16 AM EDT 8:41 PM EDT
Moon 8:46 PM EDT (9/16) 8:50 AM EDT (9/16)
Length of Visible Light 13h 18m
Length of Day
12h 24m
Waning Gibbous, 94% of the Moon is Illuminated
Sep 16
Waning Gibbous
Sep 21
Last Quarter
Sep 28
New
Oct 5
First Quarter
Oct 13
Full

Hourly Weather History & Observations

Time (EDT) Temp. Heat Index Dew Point Humidity Pressure Visibility Wind Dir Wind Speed Gust Speed Precip Events Conditions
12:19 AM 66.4 °F - 61.7 °F 85% 30.13 in 10.0 mi Calm Calm - N/A   Clear
12:39 AM 64.9 °F - 60.4 °F 85% 30.13 in 10.0 mi Calm Calm - N/A   Clear
12:59 AM 64.9 °F - 61.0 °F 87% 30.13 in 10.0 mi Calm Calm - N/A   Clear
1:19 AM 64.4 °F - 60.8 °F 88% 30.13 in 10.0 mi Calm Calm - N/A   Clear
1:39 AM 64.0 °F - 61.2 °F 90% 30.13 in 10.0 mi Calm Calm - N/A   Clear
1:59 AM 64.4 °F - 61.3 °F 90% 30.12 in 10.0 mi Calm Calm - N/A   Clear
2:19 AM 64.6 °F - 61.9 °F 91% 30.12 in 10.0 mi Calm Calm - N/A   Clear
2:39 AM 64.9 °F - 63.0 °F 93% 30.11 in 10.0 mi Calm Calm - N/A   Scattered Clouds
2:59 AM 65.3 °F - 63.7 °F 94% 30.11 in 3.0 mi Calm Calm - N/A   Overcast
3:19 AM 63.7 °F - 62.4 °F 96% 30.11 in 7.0 mi Calm Calm - N/A   Overcast
3:39 AM 63.7 °F - 62.6 °F 96% 30.11 in 0.2 mi Calm Calm - N/A Fog Fog
3:59 AM 63.7 °F - 62.6 °F 96% 30.11 in 0.5 mi Calm Calm - N/A Fog Fog
4:19 AM 64.0 °F - 63.0 °F 96% 30.11 in 0.5 mi Calm Calm - N/A Fog Fog
4:39 AM 63.5 °F - 62.4 °F 96% 30.10 in 0.2 mi Calm Calm - N/A Fog Fog
4:59 AM 63.0 °F - 61.9 °F 96% 30.10 in 0.2 mi Calm Calm - N/A Fog Fog
5:19 AM 63.5 °F - 62.2 °F 96% 30.10 in 0.2 mi Calm Calm - N/A Fog Fog
5:39 AM 63.1 °F - 62.1 °F 96% 30.10 in 0.2 mi Calm Calm - N/A Fog Fog
5:40 AM 63.1 °F - 62.1 °F 96% 30.10 in 0.2 mi Calm Calm - N/A Fog Fog
5:50 AM 62.6 °F - 62.6 °F 100% 30.10 in 0.2 mi Calm Calm - N/A   Overcast
6:50 AM 64.4 °F - 62.6 °F 94% 30.11 in 0.2 mi Calm Calm - N/A   Overcast
8:30 AM 69.8 °F - 68.0 °F 94% 30.11 in 1.0 mi Calm Calm - N/A   Mostly Cloudy
8:50 AM 69.8 °F - 69.8 °F 100% 30.11 in 1.0 mi Calm Calm - N/A   Mostly Cloudy
9:20 AM 73.4 °F - 71.6 °F 94% 30.11 in 3.0 mi Calm Calm - N/A   Mostly Cloudy
9:50 AM 75.2 °F - 71.6 °F 89% 30.12 in 10.0 mi Calm Calm - N/A   Clear
10:50 AM 84.2 °F 85.0 °F 62.6 °F 48% 30.11 in 10.0 mi Calm Calm - N/A   Clear
11:50 AM 84.2 °F 84.4 °F 60.8 °F 45% 30.09 in 10.0 mi Calm Calm - N/A   Clear
12:50 PM 84.2 °F 84.4 °F 60.8 °F 45% 30.08 in 10.0 mi West 3.5 mph - N/A   Clear
1:50 PM 87.8 °F 88.5 °F 62.6 °F 43% 30.05 in 10.0 mi South 4.6 mph - N/A   Clear
2:45 PM 89.6 °F 88.9 °F 59.0 °F 36% 30.03 in 10.0 mi Variable 3.5 mph - N/A   Scattered Clouds
3:45 PM 89.6 °F 87.3 °F 53.6 °F 29% 30.01 in 10.0 mi South 5.8 mph - N/A   Partly Cloudy
4:45 PM 89.6 °F - 48.2 °F 24% 30.00 in 10.0 mi Calm Calm - N/A   Partly Cloudy
5:45 PM 87.8 °F 85.7 °F 53.6 °F 31% 29.99 in 10.0 mi Calm Calm - N/A   Scattered Clouds
6:45 PM 84.2 °F 84.4 °F 60.8 °F 45% 30.00 in 10.0 mi Calm Calm - N/A   Mostly Cloudy
7:45 PM 80.6 °F 81.8 °F 62.6 °F 54% 30.01 in 10.0 mi NE 4.6 mph - N/A   Scattered Clouds
8:50 PM 78.8 °F - 66.2 °F 65% 30.02 in 10.0 mi Calm Calm - N/A   Clear
9:50 PM 77.0 °F - 66.2 °F 69% 30.03 in 10.0 mi East 3.5 mph - N/A   Clear
10:19 PM 76.3 °F - 66.2 °F 71% 30.03 in 10.0 mi Calm Calm - N/A   Clear
10:39 PM 75.9 °F - 67.5 °F 75% 30.03 in 10.0 mi ESE 3.5 mph - N/A   Clear
11:39 PM 74.7 °F - 67.5 °F 78% 30.04 in 10.0 mi Calm Calm - N/A   Clear
11:59 PM 73.9 °F - 67.5 °F 80% 30.04 in 10.0 mi Calm Calm - N/A   Clear